Weather History for TJSJ - January, 2013

Change the Weather History Date:

Tuesday, January 22, 2013

  Actual Average Record
Temperature  
Mean Temperature 80 °F 78 °F  
Max Temperature 86 °F 83 °F 91 °F (2014)
Min Temperature 73 °F 72 °F 64 °F (2005)
Degree Days  
Heating Degree Days 0 0  
Month to date heating degree days 0 0  
Since 1 July heating degree days 0 0  
Cooling Degree Days 15 12  
Month to date cooling degree days 296 282  
Year to date cooling degree days 296 282  
Growing Degree Days 30 (Base 50)    
Moisture  
Dew Point 69 °F    
Average Humidity 70    
Maximum Humidity 84    
Minimum Humidity 55    
Precipitation  
Precipitation 0.00 in 0.11 in 1.32 in (1997)
Month to date precipitation 1.26 2.87  
Year to date precipitation 1.26 2.87  
Sea Level Pressure  
Sea Level Pressure 30.04 in    
Wind  
Wind Speed 6 mph (ESE)    
Max Wind Speed 16 mph    
Max Gust Speed 21 mph    
Visibility 10 miles    
Events      
T = Trace of Precipitation, MM = Missing Value Source: NWS Daily Summary

Daily Weather History Graph

Daily Weather History Graph

Search for Another Location

Airport or City:

Trip Planner

Search our weather history database for the weather conditions in past years. The results will help you decide how hot, cold, wet, or windy it might be!

Date:

Astronomy

Jan. 22, 2013 Rise Set
Actual Time 6:59 AM AST 6:12 PM AST
Civil Twilight 6:36 AM AST 6:35 PM AST
Nautical Twilight 6:09 AM AST 7:02 PM AST
Astronomical Twilight 5:43 AM AST 7:28 PM AST
Moon 2:37 PM AST (1/22) 3:12 AM AST (1/22)
Length of Visible Light 11h 59m
Length of Day
11h 13m
Waxing Gibbous, 82% of the Moon is Illuminated
Jan 22
Waxing Gibbous
Jan 27
Full
Feb 3
Last Quarter
Feb 10
New
Feb 17
First Quarter

Hourly Weather History & Observations

Time (AST) Temp. Heat Index Dew Point Humidity Pressure Visibility Wind Dir Wind Speed Gust Speed Precip Events Conditions
12:56 AM 73.9 °F - 68.0 °F 82% 30.04 in 10.0 mi Calm Calm - N/A   Partly Cloudy
1:56 AM 73.9 °F - 68.0 °F 82% 30.03 in 10.0 mi Calm Calm - N/A   Scattered Clouds
2:56 AM 73.9 °F - 68.0 °F 82% 30.01 in 10.0 mi Calm Calm - N/A   Scattered Clouds
3:56 AM 75.0 °F - 68.0 °F 79% 30.00 in 10.0 mi SSE 3.5 mph - N/A   Mostly Cloudy
4:56 AM 73.9 °F - 66.9 °F 79% 30.01 in 10.0 mi ESE 3.5 mph - N/A   Partly Cloudy
5:56 AM 73.0 °F - 68.0 °F 84% 30.02 in 10.0 mi Calm Calm - N/A   Partly Cloudy
6:56 AM 73.0 °F - 68.0 °F 84% 30.04 in 10.0 mi Calm Calm - N/A   Scattered Clouds
7:56 AM 75.0 °F - 68.0 °F 79% 30.06 in 10.0 mi ESE 4.6 mph - N/A   Scattered Clouds
8:56 AM 78.1 °F - 69.1 °F 74% 30.08 in 10.0 mi ESE 5.8 mph - N/A   Scattered Clouds
9:56 AM 80.1 °F 83.2 °F 70.0 °F 71% 30.09 in 10.0 mi ESE 6.9 mph - N/A   Scattered Clouds
10:56 AM 84.0 °F 87.8 °F 69.1 °F 61% 30.08 in 10.0 mi East 11.5 mph - N/A   Scattered Clouds
11:56 AM 82.9 °F 87.5 °F 71.1 °F 67% 30.06 in 10.0 mi East 11.5 mph - N/A   Scattered Clouds
12:56 PM 82.0 °F 86.3 °F 71.1 °F 69% 30.03 in 10.0 mi East 13.8 mph 18.4 mph N/A   Scattered Clouds
1:56 PM 82.9 °F 85.4 °F 66.9 °F 58% 30.01 in 10.0 mi ESE 11.5 mph - N/A   Scattered Clouds
2:56 PM 84.9 °F 87.6 °F 66.9 °F 55% 29.99 in 10.0 mi East 13.8 mph 20.7 mph N/A   Scattered Clouds
3:56 PM 82.9 °F 85.8 °F 68.0 °F 60% 30.00 in 10.0 mi East 11.5 mph 19.6 mph N/A   Scattered Clouds
4:56 PM 81.0 °F 84.1 °F 69.1 °F 67% 30.01 in 9.0 mi East 11.5 mph - N/A   Scattered Clouds
5:56 PM 80.1 °F 83.2 °F 70.0 °F 71% 30.03 in 9.0 mi East 9.2 mph - N/A   Scattered Clouds
6:56 PM 79.0 °F - 70.0 °F 74% 30.03 in 10.0 mi East 9.2 mph - N/A   Scattered Clouds
7:56 PM 78.1 °F - 71.1 °F 79% 30.05 in 10.0 mi ESE 6.9 mph - N/A   Partly Cloudy
8:56 PM 77.0 °F - 70.0 °F 79% 30.07 in 10.0 mi East 3.5 mph - N/A   Clear
9:56 PM 77.0 °F - 70.0 °F 79% 30.08 in 10.0 mi Calm Calm - N/A   Partly Cloudy
10:56 PM 77.0 °F - 70.0 °F 79% 30.07 in 10.0 mi ESE 4.6 mph - N/A   Partly Cloudy
11:56 PM 75.0 °F - 70.0 °F 84% 30.07 in 10.0 mi Calm Calm - N/A   Partly Cloudy